Overview Statistics Trail Chart Weather Telemetry Raw packets
 

This is the latest recevied weather packets stored in our database for station/object S51UL-6. If no packets are shown the sender has not sent any weather packets the latest 10 day(s).

<< 66 67 68 69 70 71 72 >>
Time Temp. Humidity Pressure Rain* Wind** Luminosity Snow
1788043938 13.33° C 84% 1018.4 hPa 17.53 mm - - -
1788043342 13.89° C 84% 1018.3 hPa 14.99 mm - - -
1788043038 13.89° C 84% 1018.3 hPa 16 mm - - -
1788042737 13.89° C 84% 1018.1 hPa 14.99 mm - - -
1788042438 13.89° C 84% 1018.3 hPa 15.49 mm - - -
1788042137 13.89° C 83% 1018.2 hPa 15.49 mm - - -
1788041538 13.89° C 83% 1018.3 hPa 15.49 mm - - -
1788041237 13.89° C 83% 1018.1 hPa 12.95 mm - - -
1788040638 14.44° C 83% 1018.1 hPa 14.48 mm - - -
1788040339 14.44° C 83% 1017.9 hPa 14.48 mm - - -
1788040039 14.44° C 82% 1018 hPa 14.99 mm - - -
1788039439 14.44° C 82% 1017.8 hPa 14.99 mm - - -
1788038539 14.44° C 81% 1017.9 hPa 13.46 mm - - -
1788037038 15° C 81% 1017.9 hPa 21.59 mm - - -
1788036739 15.56° C 81% 1018.1 hPa 21.59 mm - - -
1788035239 15.56° C 80% 1017.8 hPa 16.51 mm - - -
1788034939 15.56° C 80% 1017.9 hPa 14.48 mm - - -
1788034639 16.11° C 79% 1017.8 hPa 12.45 mm - - -
1788033741 16.11° C 78% 1017.9 hPa 9.4 mm - - -
1788033440 16.11° C 78% 1017.9 hPa 6.1 mm - - -
1788032841 16.67° C 77% 1017.8 hPa 7.11 mm - - -
1788032539 16.67° C 77% 1017.9 hPa 7.62 mm - - -
1788031639 17.22° C 77% 1017.8 hPa 6.6 mm - - -
1788031039 17.22° C 76% 1017.8 hPa 5.59 mm - - -
1788030739 17.22° C 76% 1017.6 hPa 6.1 mm - - -

* Rain latest hour (hover to see other rain measurements)
** Current wind speed in m/s (hover to see current wind gust speed)